Location: ??
(34.7252°N, 135.5457°E)
Time: 08:46:45
(UTC+00:00)

Cosmos 2322 Rocket - Pass Details

Date: 24 September 2020
Orbit: 831 x 852 km, 71.0° (Epoch: 23 October)

Event Time Altitude Azimuth Distance (km) Brightness Sun altitude
Exits shadow 18:24:52 62° 5° (N) 951 2.4 -29.6°
Drops below altitude 10° 18:29:34 10° 19° (NNE) 2,479 5.1 -28.7°
Sets 18:32:02 0° 20° (NNE) 3,420 5.9 -28.2°
